Voltar ao catálogo

SL-14 DEB

AtivoPO
NORAD 26008·DEBRIS·🇷🇺 Russia

Lançado Sep 28, 1991 de Plesetsk Cosmodrome

Loading…

Próximas Passagens (próximas 24 horas)

TLE

AtualizadoSource: Space-Track

Época: Sep 14, 2026, 15:54 UTC

1 26008U 91068T   26257.66308190  .00000041  00000-0  16918-3 0  9998
2 26008  82.6330 332.2571 0090529 234.0053 294.7052 12.63154549241573

Acompanhe SL-14 DEB em tempo real com AllMySat

Download on the App Store